This demonstration page uses our WeatherBlox Daily Observations layout. Learn more.

Left ArrowRight Arrow

Hourly Observations for May 25, 2022

Temp ( °F °C ) Dew Point ( °F °C ) Humidity (%) Winds ( mph kmh ) Pressure ( in mb ) Visibility ( mi km ) Precip ( " mm )
12:56 am 00:56 Mostly Cloudy with Light Showers 52 11.2 50 9.9 92 92 ENE 10 17 29.90 1012 5 8 0.01 0.25
1:56 am 01:56 Cloudy with Drizzle 52 11.3 50 10 92 92 ENE 10 17 29.88 1012 4 6 0.02 0.51
2:56 am 02:56 Cloudy with Mist and Fog 52 11.2 50 9.9 92 92 ENE 12 19 29.85 1011 6 10 0.01 0.25
3:56 am 03:56 Cloudy 52 11.3 49 9.7 90 90 NE 10 17 29.85 1011 10 16 0.00 0.00
4:56 am 04:56 Cloudy with Drizzle 52 11.2 50 9.8 91 91 ENE 10 17 29.83 1010 8 13 0.00 0.00
5:56 am 05:56 Cloudy 52 10.9 49 9.6 92 92 NE 9 15 29.84 1010 8 13 0.00 0.00
6:56 am 06:56 Cloudy with Drizzle 52 10.9 49 9.5 91 91 NNE 7 11 29.87 1011 5 8 0.00 0.00
7:11 am 07:11 Cloudy with Drizzle 52 11 50 10 94 94 NNE 9 15 29.86 1011 3 5 0.00 0.00
7:56 am 07:56 Cloudy with Drizzle 52 10.9 49 9.6 92 92 NNE 6 9 29.87 1011 3 5 0.00 0.00
8:26 am 08:26 Cloudy with Drizzle 52 11 50 10 94 94 N 7 11 29.87 1011 2 3 0.00 0.00
8:56 am 08:56 Cloudy with Drizzle 52 11 49 9.7 92 92 NNE 7 11 29.85 1011 4 6 0.00 0.00
9:56 am 09:56 Mostly Cloudy 52 11.3 49 9.7 90 90 NNE 10 17 29.84 1010 9 14 0.00 0.00
10:56 am 10:56 Cloudy 52 11.3 49 9.4 88 88 NNE 8 13 29.84 1010 10 16 0.00 0.00
11:20 am 11:20 Cloudy with Light Rain 52 11 48 9 88 88 NNE 7 11 29.84 1010 6 10 0.00 0.00
11:56 am 11:56 Cloudy with Light Rain 53 11.6 50 10.2 91 91 N 14 22 29.83 1010 9 14 0.04 1.02
12:56 pm 12:56 Cloudy with Light Rain 54 12.1 51 10.5 90 90 N 12 19 29.83 1010 9 14 0.00 0.00
1:56 pm 13:56 Cloudy with Light Rain 54 12 50 10.2 89 89 N 9 15 29.80 1009 9 14 0.00 0.00
2:56 pm 14:56 Cloudy with Light Rain 54 12.1 51 10.3 89 89 N 15 24 29.78 1008 4 6 0.06 1.52
3:56 pm 15:56 Cloudy with Rain 53 11.9 51 10.3 90 90 N 15 24 29.78 1008 4 6 0.15 3.81
4:56 pm 16:56 Cloudy with Rain 53 11.7 50 10.1 90 90 N 17 28 29.74 1007 5 8 0.16 4.06
5:04 pm 17:04 Cloudy with Rain 54 12 50 10 88 88 N 20 31 29.73 1007 5 8 0.00 0.00
5:56 pm 17:56 Cloudy with Rain 53 11.5 49 9.7 89 89 N 14 22 29.74 1007 4 6 0.09 2.29
6:56 pm 18:56 Cloudy with Rain 52 11.2 49 9.6 90 90 N 17 28 29.72 1006 6 10 0.12 3.05
7:56 pm 19:56 Cloudy with Light Rain 52 11.1 49 9.4 89 89 N 20 31 29.72 1006 5 8 0.12 3.05
8:56 pm 20:56 Cloudy with Rain 52 11 49 9.3 89 89 N 14 22 29.72 1007 5 8 0.09 2.29
9:56 pm 21:56 Cloudy with Rain 52 10.9 49 9.5 91 91 NNE 8 13 29.79 1009 4 6 0.14 3.56
10:56 pm 22:56 Cloudy with Drizzle 51 10.8 49 9.2 90 90 N 9 15 29.80 1009 8 13 0.07 1.78
11:56 pm 23:56 Mostly Cloudy with Light Rain 51 10.6 49 9.2 91 91 N 12 19 29.80 1009 8 13 0.01 0.25

Powered by AerisWeather